W5TTY Weather Reports


time (UTC)temp
C
wind
direction
speed
KPH
gust
KPH
rain 1hr
cm
rain 24hr
cm
rain mn
cm
humidity
%
barometer
mb
20260901153333 30 34 3.2 9.7 0.00 0.00 0.00 81 1016.5
20260901152819 30 37 6.4 9.7 0.00 0.00 0.00 81 1016.5
20260901152349 30 360 4.8 9.7 0.00 0.00 0.00 81 1016.4
20260901151829 30 273 0.0 8.0 0.00 0.00 0.00 81 1016.4
20260901151335 30 306 4.8 11.3 0.00 0.00 0.00 81 1016.4
20260901150820 29 341 1.6 9.7 0.00 0.00 0.00 81 1016.4
20260901150322 29 167 1.6 9.7 0.00 0.00 0.00 81 1016.4
20260901145855 28 280 4.8 11.3 0.00 0.00 0.00 81 1016.4
20260901145356 28 347 1.6 6.4 0.00 0.00 0.00 81 1016.5
20260901144819 28 298 3.2 9.7 0.00 0.00 0.00 81 1016.5
20260901144322 28 296 4.8 12.9 0.00 0.00 0.00 81 1016.5
20260901143830 28 306 3.2 12.9 0.00 0.00 0.00 81 1016.6
20260901143334 28 306 3.2 9.7 0.00 0.00 0.00 81 1016.6
20260901142841 28 348 3.2 9.7 0.00 0.00 0.00 80 1016.7
20260901142321 28 43 3.2 8.0 0.00 0.00 0.00 81 1016.7
20260901141830 27 310 3.2 8.0 0.00 0.00 0.00 80 1016.7
20260901141334 27 305 3.2 8.0 0.00 0.00 0.00 80 1016.6
20260901140838 27 35 3.2 6.4 0.00 0.00 0.00 80 1016.6
20260901140323 27 360 1.6 6.4 0.00 0.00 0.00 80 1016.7
20260901135830 26 5 1.6 6.4 0.00 0.00 0.00 80 1016.7
20260901135330 26 49 1.6 4.8 0.00 0.00 0.00 80 1016.7
20260901134833 26 49 0.0 4.8 0.00 0.00 0.00 79 1016.7
20260901134317 26 50 0.0 4.8 0.00 0.00 0.00 79 1016.8
20260901133823 26 50 0.0 4.8 0.00 0.00 0.00 79 1016.8
20260901133325 25 50 1.6 3.2 0.00 0.00 0.00 79 1016.8
20260901132838 25 50 0.0 4.8 0.00 0.00 0.00 79 1016.8
20260901132343 25 50 1.6 6.4 0.00 0.00 0.00 79 1016.8
20260901131827 25 51 1.6 6.4 0.00 0.00 0.00 78 1016.8
20260901131329 25 51 1.6 4.8 0.00 0.00 0.00 78 1016.7
20260901125906 24 40 3.2 4.8 0.00 0.00 0.00 78 1016.5
20260901125325 23 35 1.6 4.8 0.00 0.00 0.00 78 1016.5
20260901124828 23 21 1.6 4.8 0.00 0.00 0.00 77 1016.4
20260901124333 23 21 1.6 4.8 0.00 0.00 0.00 77 1016.3
20260901123819 23 21 3.2 6.4 0.00 0.00 0.00 77 1016.3
20260901123321 23 22 4.8 6.4 0.00 0.00 0.00 77 1016.2
20260901122856 23 32 1.6 4.8 0.00 0.00 0.00 76 1016.3
20260901122318 23 32 0.0 0.0 0.00 0.00 0.00 76 1016.2
20260901121826 23 32 0.0 0.0 0.00 0.00 0.00 76 1016.1
20260901121330 23 32 0.0 0.0 0.00 0.00 0.00 76 1016.0
20260901120837 23 32 0.0 0.0 0.00 0.00 0.00 76 1016.0
20260901120343 23 32 0.0 0.0 0.00 0.00 0.00 76 1015.9
20260901115855 23 133 0.0 0.0 0.00 0.00 0.00 75 1015.9
20260901115317 23 135 0.0 0.0 0.00 0.00 0.00 75 1015.8
20260901114821 23 135 0.0 0.0 0.00 0.00 0.00 75 1015.7
20260901114326 23 135 0.0 0.0 0.00 0.00 0.00 75 1015.7
20260901113835 23 135 0.0 0.0 0.00 0.00 0.00 75 1015.6
20260901113340 23 136 0.0 0.0 0.00 0.00 0.00 75 1015.6
20260901112834 23 136 0.0 0.0 0.00 0.00 0.00 75 1015.5
20260901112341 23 136 0.0 0.0 0.00 0.00 0.00 75 1015.5
20260901111827 23 136 0.0 0.0 0.00 0.00 0.00 75 1015.6
20260901111334 23 135 0.0 0.0 0.00 0.00 0.00 74 1015.5
20260901110822 23 135 0.0 0.0 0.00 0.00 0.00 74 1015.3
20260901110327 24 135 0.0 0.0 0.00 0.00 0.00 74 1015.4
20260901105903 24 135 0.0 0.0 0.00 0.00 0.00 74 1015.4
20260901033342 30 143 4.8 11.3 0.00 0.00 0.00 57 1014.4
20260901032828 30 131 4.8 11.3 0.00 0.00 0.00 56 1014.4
20260901032401 30 140 4.8 12.9 0.00 0.00 0.00 56 1014.4
20260901031843 30 114 6.4 12.9 0.00 0.00 0.00 56 1014.3
20260901031354 30 141 4.8 12.9 0.00 0.00 0.00 56 1014.3
20260901030839 30 132 4.8 9.7 0.00 0.00 0.00 55 1014.3
20260901030334 30 183 3.2 9.7 0.00 0.00 0.00 55 1014.1
20260901025822 30 180 4.8 9.7 0.00 0.00 0.00 55 1014.1
20260901025325 30 181 3.2 12.9 0.00 0.00 0.00 54 1014.0
20260901024837 30 144 6.4 16.1 0.00 0.00 0.00 54 1014.0
20260901024323 31 130 4.8 16.1 0.00 0.00 0.00 54 1013.9
20260901023827 31 140 6.4 14.5 0.00 0.00 0.00 53 1013.8
20260901023338 31 121 6.4 12.9 0.00 0.00 0.00 53 1013.8
20260901022824 31 115 4.8 16.1 0.00 0.00 0.00 53 1013.7
20260901022329 31 123 6.4 16.1 0.00 0.00 0.00 52 1013.5
20260901021832 31 103 6.4 14.5 0.00 0.00 0.00 52 1013.5
20260901021317 31 137 4.8 14.5 0.00 0.00 0.00 52 1013.4
20260901020830 31 180 4.8 14.5 0.00 0.00 0.00 51 1013.4
20260901020337 31 144 6.4 14.5 0.00 0.00 0.00 51 1013.3
20260901015829 31 155 4.8 12.9 0.00 0.00 0.00 51 1013.3
20260901015332 31 150 4.8 14.5 0.00 0.00 0.00 50 1013.3
20260901014817 31 142 8.0 14.5 0.00 0.00 0.00 50 1013.2
20260901014333 32 168 9.7 22.5 0.00 0.00 0.00 49 1013.2
20260901013839 32 140 8.0 22.5 0.00 0.00 0.00 49 1013.3
20260901013331 32 148 9.7 19.3 0.00 0.00 0.00 49 1013.3
20260901012837 32 198 4.8 20.9 0.00 0.00 0.00 48 1013.3
20260901012324 32 154 11.3 20.9 0.00 0.00 0.00 48 1013.3
20260901011829 33 150 12.9 20.9 0.00 0.00 0.00 48 1013.3
20260901011342 33 132 14.5 25.7 0.00 0.00 0.00 47 1013.2
20260901010834 33 150 14.5 29.0 0.00 0.00 0.00 47 1013.2
20260901010340 33 121 14.5 27.4 0.00 0.00 0.00 47 1013.1
20260901005831 34 134 12.9 30.6 0.00 0.00 0.00 47 1013.1
20260901005333 34 146 8.0 16.1 0.00 0.00 0.00 47 1013.0
20260901004851 34 120 3.2 12.9 0.00 0.00 0.00 47 1012.8
20260901004359 34 136 4.8 12.9 0.00 0.00 0.00 47 1012.8
20260901003825 35 134 6.4 14.5 0.00 0.00 0.00 47 1012.7
20260901003333 35 122 8.0 14.5 0.00 0.00 0.00 47 1012.7
20260901002822 35 126 4.8 12.9 0.00 0.00 0.00 47 1012.8
20260901002333 35 109 3.2 11.3 0.00 0.00 0.00 47 1012.8
20260901001819 35 121 4.8 11.3 0.00 0.00 0.00 47 1012.8
20260901001321 35 130 4.8 11.3 0.00 0.00 0.00 47 1012.7
20260901000835 35 123 4.8 11.3 0.00 0.00 0.00 47 1012.8
20260901000321 35 130 6.4 12.9 0.00 0.00 0.00 47 1012.8
20260831235829 35 128 6.4 12.9 0.00 0.00 0.00 47 1012.7
20260831235340 36 116 1.6 12.9 0.00 0.00 0.00 47 1012.7
20260831234825 36 128 6.4 14.5 0.00 0.00 0.00 47 1012.7
20260831234328 36 103 8.0 16.1 0.00 0.00 0.00 47 1012.6
20260831233822 36 138 8.0 16.1 0.00 0.00 0.00 47 1012.6
20260831233328 36 92 6.4 19.3 0.00 0.00 0.00 47 1012.7
20260831232840 36 123 11.3 19.3 0.00 0.00 0.00 47 1012.5
20260831232323 36 107 6.4 12.9 0.00 0.00 0.00 48 1012.5
20260831231826 36 169 6.4 12.9 0.00 0.00 0.00 48 1012.7
20260831231337 36 155 6.4 12.9 0.00 0.00 0.00 48 1012.6
20260831230840 36 78 6.4 16.1 0.00 0.00 0.00 48 1012.7
20260831230325 36 107 8.0 16.1 0.00 0.00 0.00 48 1012.7
20260831225836 36 105 4.8 17.7 0.00 0.00 0.00 48 1012.8
20260831225321 36 101 9.7 17.7 0.00 0.00 0.00 48 1012.8
20260831224823 36 91 3.2 16.1 0.00 0.00 0.00 48 1012.8
20260831224355 36 130 11.3 19.3 0.00 0.00 0.00 49 1012.8
20260831223819 36 88 4.8 19.3 0.00 0.00 0.00 49 1012.8
20260831223353 36 109 6.4 12.9 0.00 0.00 0.00 49 1012.9
20260831222838 36 187 1.6 8.0 0.00 0.00 0.00 49 1012.9
20260831222319 36 215 1.6 11.3 0.00 0.00 0.00 50 1012.9
20260831221851 36 171 6.4 17.7 0.00 0.00 0.00 50 1013.0
20260831221345 36 134 11.3 17.7 0.00 0.00 0.00 50 1013.0
20260831220830 36 131 12.9 17.7 0.00 0.00 0.00 50 1013.0
20260831220342 36 107 8.0 17.7 0.00 0.00 0.00 51 1013.0
20260831215822 36 82 4.8 17.7 0.00 0.00 0.00 51 1013.1
20260831215329 36 116 9.7 20.9 0.00 0.00 0.00 51 1013.2
20260831214834 36 73 12.9 20.9 0.00 0.00 0.00 51 1013.1
20260831214325 36 77 11.3 19.3 0.00 0.00 0.00 51 1013.2
20260831213831 36 74 6.4 22.5 0.00 0.00 0.00 52 1013.3
20260831213340 36 166 9.7 16.1 0.00 0.00 0.00 52 1013.3
20260831212833 36 89 8.0 16.1 0.00 0.00 0.00 53 1013.2
20260831212339 36 120 8.0 16.1 0.00 0.00 0.00 53 1013.3
20260831211823 36 188 4.8 11.3 0.00 0.00 0.00 53 1013.3
20260831211335 36 198 3.2 11.3 0.00 0.00 0.00 54 1013.4
20260831210821 36 150 3.2 16.1 0.00 0.00 0.00 54 1013.5
20260831210328 36 168 6.4 16.1 0.00 0.00 0.00 55 1013.6
20260831205842 36 175 8.0 17.7 0.00 0.00 0.00 55 1013.6
20260831205324 36 84 9.7 17.7 0.00 0.00 0.00 55 1013.8
20260831204836 36 101 9.7 17.7 0.00 0.00 0.00 55 1013.8
20260831204321 36 65 9.7 20.9 0.00 0.00 0.00 56 1013.9
20260831203854 36 98 12.9 20.9 0.00 0.00 0.00 56 1014.0
20260831203320 36 96 6.4 17.7 0.00 0.00 0.00 57 1014.0
20260831202829 36 111 9.7 17.7 0.00 0.00 0.00 58 1014.2
20260831202334 36 114 9.7 22.5 0.00 0.00 0.00 58 1014.3
20260831201845 36 157 8.0 22.5 0.00 0.00 0.00 58 1014.3
20260831201348 36 177 9.7 22.5 0.00 0.00 0.00 59 1014.4
20260831200844 36 190 8.0 22.5 0.00 0.00 0.00 59 1014.4
20260831200329 35 159 12.9 20.9 0.00 0.00 0.00 60 1014.5
20260831195839 35 153 8.0 14.5 0.00 0.00 0.00 60 1014.6
20260831195325 35 192 8.0 20.9 0.00 0.00 0.00 61 1014.6
20260831194829 35 123 8.0 22.5 0.00 0.00 0.00 61 1014.8
20260831194324 35 144 8.0 19.3 0.00 0.00 0.00 62 1014.8
20260831193849 35 228 4.8 25.7 0.00 0.00 0.00 63 1014.9
20260831193341 35 130 9.7 20.9 0.00 0.00 0.00 63 1015.0
20260831192828 35 88 4.8 24.1 0.00 0.00 0.00 64 1015.0
20260831192330 34 109 14.5 24.1 0.00 0.00 0.00 64 1015.2
20260831191842 34 119 11.3 19.3 0.00 0.00 0.00 64 1015.2
20260831191349 34 123 6.4 25.7 0.00 0.00 0.00 65 1015.4
20260831190836 34 111 8.0 25.7 0.00 0.00 0.00 66 1015.4
20260831190330 34 139 6.4 20.9 0.00 0.00 0.00 66 1015.4
20260831185839 34 136 9.7 22.5 0.00 0.00 0.00 66 1015.5
20260831185323 34 76 11.3 22.5 0.00 0.00 0.00 67 1015.6
20260831184840 34 57 8.0 20.9 0.00 0.00 0.00 67 1015.7
20260831184345 34 107 8.0 20.9 0.00 0.00 0.00 68 1015.6
20260831183838 34 135 11.3 20.9 0.00 0.00 0.00 69 1015.8
20260831183323 34 99 11.3 20.9 0.00 0.00 0.00 69 1015.9
20260831182828 33 106 9.7 27.4 0.00 0.00 0.00 70 1016.0
20260831182342 33 125 8.0 27.4 0.00 0.00 0.00 70 1016.1
20260831181848 33 126 16.1 25.7 0.00 0.00 0.00 71 1016.1
20260831181340 33 151 8.0 25.7 0.00 0.00 0.00 71 1016.1
20260831180829 33 123 12.9 25.7 0.00 0.00 0.00 72 1016.1
20260831180334 33 118 6.4 22.5 0.00 0.00 0.00 72 1016.1
20260831175820 33 146 12.9 22.5 0.00 0.00 0.00 73 1016.2
20260831175330 33 62 4.8 20.9 0.00 0.00 0.00 73 1016.3
20260831174836 33 105 11.3 20.9 0.00 0.00 0.00 74 1016.4
20260831174345 33 93 4.8 12.9 0.00 0.00 0.00 74 1016.4
20260831173830 33 139 6.4 14.5 0.00 0.00 0.00 74 1016.5
20260831173345 33 129 6.4 16.1 0.00 0.00 0.00 75 1016.5
20260831172829 33 161 6.4 20.9 0.00 0.00 0.00 75 1016.6
20260831172333 32 155 9.7 20.9 0.00 0.00 0.00 76 1016.6
20260831171825 32 93 11.3 17.7 0.00 0.00 0.00 76 1016.7
20260831171333 32 86 9.7 17.7 0.00 0.00 0.00 76 1016.7
20260831170843 32 92 4.8 12.9 0.00 0.00 0.00 77 1016.8
20260831170333 32 140 4.8 11.3 0.00 0.00 0.00 78 1016.8
20260831165819 32 71 4.8 11.3 0.00 0.00 0.00 78 1016.9
20260831165329 32 212 1.6 12.9 0.00 0.00 0.00 78 1017.0
20260831164833 32 188 8.0 14.5 0.00 0.00 0.00 79 1017.0
20260831164347 32 219 6.4 14.5 0.00 0.00 0.00 79 1017.0
20260831163859 32 231 6.4 14.5 0.00 0.00 0.00 79 1017.0
20260831163323 31 161 9.7 14.5 0.00 0.00 0.00 79 1017.0
20260831162828 31 103 4.8 12.9 0.00 0.00 0.00 80 1017.0
20260831162334 31 144 8.0 14.5 0.00 0.00 0.00 80 1017.1
20260831161818 31 132 11.3 14.5 0.00 0.00 0.00 80 1017.0
20260831161323 31 254 4.8 12.9 0.00 0.00 0.00 80 1017.0
20260831160834 31 145 3.2 8.0 0.00 0.00 0.00 80 1017.0
20260831160319 31 90 3.2 8.0 0.00 0.00 0.00 81 1017.0
20260831155822 31 178 1.6 14.5 0.00 0.00 0.00 81 1017.0
20260831155335 31 291 8.0 14.5 0.00 0.00 0.00 81 1017.0
20260831154842 30 238 4.8 14.5 0.00 0.00 0.00 81 1016.9
20260831154327 30 238 6.4 14.5 0.00 0.00 0.00 81 1016.8
20260831153833 30 220 3.2 6.4 0.00 0.00 0.00 81 1016.9